AirNav   ProFlight Series 2 Aviation Headset
 
 1398 users online  

0IA2 Audubon County Memorial Hospital Heliport
Audubon, Iowa, USA

GOING TO AUDUBON?


FAA INFORMATION EFFECTIVE 16 JULY 2020

Location

FAA Identifier: 0IA2
Lat/Long: 41-42-53.4100N 094-56-15.7200W
41-42.890167N 094-56.262000W
41.7148361,-94.9377000
(estimated)
Elevation: 1320 ft. / 402 m (estimated)
Variation: 05E (1985)
Time zone: UTC -5 (UTC -6 during Standard Time)
Zip code: 50025

Heliport Operations

Heliport use: Private use, MEDICAL.
Activation date: 03/1990
Control tower: no
ARTCC: MINNEAPOLIS CENTER
FSS: FORT DODGE FLIGHT SERVICE STATION
Attendance: CONTINUOUS
Wind indicator: lighted
Segmented circle: no

Heliport Communications

WX AWOS-3 at ADU (1.1 nm SE): 118.075 (712-563-2101)
WX AWOS-3 at AIO (19 nm S): 127.825 (712-243-2748)
WX AWOS-3 at HNR (20 nm SW): 118.325 (712-744-4400)

Nearby radio navigation aids

NDB name  Hdg/Dist  Freq  Var  ID
JEFFERSON233/32.139103EEFW . ..-. .--

Heliport Services

Runway Information

Helipad H1

Dimensions: 60 x 50 ft. / 18 x 15 m
Surface: concrete
Latitude: 41-42.890167N
Longitude: 094-56.262000W
Elevation: 1320.0 ft.
Traffic pattern: leftleft

Heliport Ownership and Management from official FAA records

Ownership: Publicly-owned
Owner: AUDUBON COUNTY
515 PACIFIC AV.
AUDUBON, IA 50025
Phone 712-563-2611
Manager: SUZANNE L. COONER
515 PACIFIC AV
AUDUBON, IA 50025
Phone 712-563-5301
DALE WILLENBORG, BLDG SUPERINTENDENT.

Additional Remarks

A52-H1 HAS BLDGS 1000' FM PAD ALL QUADRANTS.
EMERGENCY HELICOPTER TRANSPORT
HELIPAD IS LOCATED NEXT TO OUR EMERGENCY DEPARTMENT
FOR CD CTC MINNEAPOLIS ARTCC AT 651-463-5588.

Instrument Procedures

There are no published instrument procedures at 0IA2.

Some nearby airports with instrument procedures:

KADU - Audubon County Airport (1 nm SE)
KAIO - Atlantic Municipal Airport (19 nm S)
KHNR - Harlan Municipal Airport (20 nm SW)
KCIN - Arthur N Neu Airport (21 nm N)
KGCT - Guthrie County Regional Airport (23 nm E)
 
Loc | Ops | Rwys | IFR | FBO | Links
Com | Nav | Svcs | Stats | Notes
Area around 0IA2 (Audubon County Memorial Hospital Heliport)
 
Road maps at: MapQuest Bing Google
 
Aerial photo
No photo
 
Sectional chart

 
Airport distance calculator
Flying to Audubon County Memorial Hospital Heliport? Find the distance to fly.

From to 0IA2

Sunrise and sunset
Times for 07-Aug-2020
 Local
(UTC-5)
 Zulu
(UTC)
Morning civil twilight05:5110:51
Sunrise06:2211:22
Sunset20:2901:29
Evening civil twilight20:5901:59

Current date and time
Zulu (UTC)  07-Aug-2020 15:20:26
Local (UTC-5)  07-Aug-2020 10:20:26
 
METAR
KADU 071435Z AUTO 17008KT 10SM CLR 23/20 A3001 RMK AO2
KAIO 
19nm S 
071455Z AUTO 14008KT 10SM SCT046 SCT050 24/23 A2998 RMK AO2
KHNR 
19nm SW 
071455Z AUTO 15012KT 10SM CLR 24/20 A2997 RMK AO2 PWINO
TAF
KOMA 
49nm SW 
071406Z 0714/0812 14011KT P6SM SCT011 BKN045 TEMPO 0715/0716 BKN025 FM071600 16014KT P6SM BKN025 FM072000 16015G23KT P6SM BKN035 FM072300 16014KT P6SM SCT110
NOTAMs
Click for the latest NOTAMs
NOTAMs are issued by the DoD/FAA and will open in a separate window not controlled by AirNav.

 

 
 

Would you like to see your business listed on this page?

 If your business provides an interesting product or service to pilots, flight crews, aircraft, or users of the Audubon County Memorial Hospital Heliport, you should consider listing it here.  To start the listing process, click on the button below
 
Add a business
 

Other Pages about Audubon County Memorial Hospital Heliport

Update a link
 
Copyright © AirNav, LLC. All rights reserved. Privacy Policy  Contact